Year,Month,Day,Hour,Minute,Value (Times are PST for temperature in C)
2014,11,16,00,00,-1.50
2014,11,16,00,01,-1.50
2014,11,16,00,02,-1.40
2014,11,16,00,03,-1.40
2014,11,16,00,04,-1.40
2014,11,16,00,05,-1.40
2014,11,16,00,06,-1.40
2014,11,16,00,07,-1.40
2014,11,16,00,08,-1.40
2014,11,16,00,09,-1.40
2014,11,16,00,10,-1.40
2014,11,16,00,11,-1.40
2014,11,16,00,12,-1.40
2014,11,16,00,13,-1.40
2014,11,16,00,16,-1.50
2014,11,16,00,17,-1.50
2014,11,16,00,18,-1.50
2014,11,16,00,19,-1.50
2014,11,16,00,20,-1.40
2014,11,16,00,21,-1.40
2014,11,16,00,22,-1.40
2014,11,16,00,23,-1.40
2014,11,16,00,24,-1.40
2014,11,16,00,25,-1.40
2014,11,16,00,26,-1.40
2014,11,16,00,27,-1.40
2014,11,16,00,28,-1.40
2014,11,16,00,29,-1.30
2014,11,16,00,30,-1.30
2014,11,16,00,31,-1.20
2014,11,16,00,32,-1.20
2014,11,16,00,33,-1.20
2014,11,16,00,34,-1.20
2014,11,16,00,35,-1.20
2014,11,16,00,36,-1.20
2014,11,16,00,37,-1.20
2014,11,16,00,38,-1.20
2014,11,16,00,39,-1.20
2014,11,16,00,40,-1.20
2014,11,16,00,41,-1.10
2014,11,16,00,42,-1.10
2014,11,16,00,43,-1.10
2014,11,16,00,44,-1.10
2014,11,16,00,45,-1.10
2014,11,16,00,46,-1.10
2014,11,16,00,47,-1.10
2014,11,16,00,48,-1.20
2014,11,16,00,49,-1.20
2014,11,16,00,50,-1.20
2014,11,16,00,51,-1.20
2014,11,16,00,52,-1.20
2014,11,16,00,53,-1.30
2014,11,16,00,54,-1.30
2014,11,16,00,55,-1.30
2014,11,16,00,56,-1.30
2014,11,16,00,57,-1.30
2014,11,16,00,58,-1.30
2014,11,16,00,59,-1.30
2014,11,16,01,00,-1.40
2014,11,16,01,01,-1.40
2014,11,16,01,02,-1.40
2014,11,16,01,03,-1.40
2014,11,16,01,04,-1.40
2014,11,16,01,05,-1.40
2014,11,16,01,06,-1.40
2014,11,16,01,07,-1.40
2014,11,16,01,08,-1.40
2014,11,16,01,09,-1.40
2014,11,16,01,10,-1.30
2014,11,16,01,11,-1.20
2014,11,16,01,12,-1.20
2014,11,16,01,13,-1.10
2014,11,16,01,14,-1.00
2014,11,16,01,15,-0.90
2014,11,16,01,16,-0.80
2014,11,16,01,17,-0.70
2014,11,16,01,18,-0.60
2014,11,16,01,19,-0.50
2014,11,16,01,20,-0.40
2014,11,16,01,21,-0.30
2014,11,16,01,22,-0.30
2014,11,16,01,23,-0.20
2014,11,16,01,24,-0.10
2014,11,16,01,25,-0.10
2014,11,16,01,26,-0.10
2014,11,16,01,27,0.00
2014,11,16,01,28,0.10
2014,11,16,01,29,0.10
2014,11,16,01,30,0.10
2014,11,16,01,31,0.10
2014,11,16,01,32,0.20
2014,11,16,01,33,0.20
2014,11,16,01,34,0.20
2014,11,16,01,35,0.30
2014,11,16,01,36,0.30
2014,11,16,01,37,0.30
2014,11,16,01,38,0.30
2014,11,16,01,39,0.20
2014,11,16,01,40,0.20
2014,11,16,01,41,0.20
2014,11,16,01,42,0.10
2014,11,16,01,43,0.10
2014,11,16,01,44,0.10
2014,11,16,01,45,0.10
2014,11,16,01,46,0.00
2014,11,16,01,47,-0.10
2014,11,16,01,48,-0.10
2014,11,16,01,49,-0.10
2014,11,16,01,50,-0.10
2014,11,16,01,51,-0.10
2014,11,16,01,52,-0.10
2014,11,16,01,53,-0.10
2014,11,16,01,54,-0.10
2014,11,16,01,55,0.00
2014,11,16,01,56,0.10
2014,11,16,01,57,0.10
2014,11,16,01,58,0.10
2014,11,16,01,59,0.10
2014,11,16,02,00,0.10
2014,11,16,02,01,0.10
2014,11,16,02,02,0.10
2014,11,16,02,03,0.10
2014,11,16,02,04,0.10
2014,11,16,02,05,0.10
2014,11,16,02,06,0.10
2014,11,16,02,07,0.10
2014,11,16,02,08,0.10
2014,11,16,02,09,0.10
2014,11,16,02,10,0.10
2014,11,16,02,11,0.10
2014,11,16,02,12,0.10
2014,11,16,02,13,0.10
2014,11,16,02,14,0.10
2014,11,16,02,15,0.10
2014,11,16,02,16,0.10
2014,11,16,02,17,0.10
2014,11,16,02,18,0.10
2014,11,16,02,19,0.10
2014,11,16,02,20,0.20
2014,11,16,02,21,0.20
2014,11,16,02,22,0.20
2014,11,16,02,23,0.20
2014,11,16,02,24,0.20
2014,11,16,02,25,0.30
2014,11,16,02,26,0.30
2014,11,16,02,27,0.30
2014,11,16,02,28,0.40
2014,11,16,02,29,0.40
2014,11,16,02,30,0.40
2014,11,16,02,31,0.40
2014,11,16,02,32,0.40
2014,11,16,02,33,0.50
2014,11,16,02,34,0.50
2014,11,16,02,35,0.50
2014,11,16,02,36,0.50
2014,11,16,02,37,0.50
2014,11,16,02,38,0.60
2014,11,16,02,39,0.60
2014,11,16,02,40,0.60
2014,11,16,02,41,0.70
2014,11,16,02,42,0.70
2014,11,16,02,43,0.70
2014,11,16,02,44,0.70
2014,11,16,02,45,0.70
2014,11,16,02,46,0.70
2014,11,16,02,47,0.70
2014,11,16,02,48,0.70
2014,11,16,02,49,0.70
2014,11,16,02,50,0.70
2014,11,16,02,51,0.70
2014,11,16,02,52,0.70
2014,11,16,02,53,0.60
2014,11,16,02,54,0.50
2014,11,16,02,55,0.40
2014,11,16,02,56,0.30
2014,11,16,02,57,0.30
2014,11,16,02,58,0.20
2014,11,16,02,59,0.10
2014,11,16,03,00,-0.10
2014,11,16,03,01,-0.20
2014,11,16,03,02,-0.30
2014,11,16,03,03,-0.40
2014,11,16,03,04,-0.50
2014,11,16,03,05,-0.60
2014,11,16,03,06,-0.70
2014,11,16,03,07,-0.70
2014,11,16,03,08,-0.80
2014,11,16,03,09,-0.90
2014,11,16,03,10,-0.90
2014,11,16,03,11,-1.00
2014,11,16,03,12,-1.10
2014,11,16,03,13,-1.10
2014,11,16,03,14,-1.10
2014,11,16,03,15,-1.10
2014,11,16,03,16,-1.20
2014,11,16,03,17,-1.20
2014,11,16,03,18,-1.20
2014,11,16,03,19,-1.30
2014,11,16,03,20,-1.30
2014,11,16,03,21,-1.30
2014,11,16,03,22,-1.30
2014,11,16,03,23,-1.40
2014,11,16,03,24,-1.40
2014,11,16,03,25,-1.40
2014,11,16,03,26,-1.40
2014,11,16,03,27,-1.40
2014,11,16,03,28,-1.40
2014,11,16,03,29,-1.40
2014,11,16,03,30,-1.40
2014,11,16,03,31,-1.40
2014,11,16,03,32,-1.40
2014,11,16,03,33,-1.40
2014,11,16,03,34,-1.40
2014,11,16,03,35,-1.40
2014,11,16,03,36,-1.40
2014,11,16,03,37,-1.40
2014,11,16,03,38,-1.30
2014,11,16,03,39,-1.30
2014,11,16,03,40,-1.20
2014,11,16,03,41,-1.10
2014,11,16,03,42,-1.00
2014,11,16,03,43,-0.90
2014,11,16,03,44,-0.80
2014,11,16,03,45,-0.70
2014,11,16,03,46,-0.70
2014,11,16,03,47,-0.60
2014,11,16,03,48,-0.60
2014,11,16,03,49,-0.60
2014,11,16,03,50,-0.60
2014,11,16,03,51,-0.60
2014,11,16,03,52,-0.70
2014,11,16,03,53,-0.70
2014,11,16,03,54,-0.70
2014,11,16,03,55,-0.70
2014,11,16,03,56,-0.80
2014,11,16,03,57,-0.80
2014,11,16,03,58,-0.90
2014,11,16,03,59,-0.90
2014,11,16,04,00,-0.90
2014,11,16,04,01,-0.90
2014,11,16,04,02,-1.10
2014,11,16,04,03,-1.10
2014,11,16,04,04,-1.10
2014,11,16,04,05,-1.10
2014,11,16,04,06,-1.10
2014,11,16,04,07,-1.10
2014,11,16,04,08,-1.20
2014,11,16,04,09,-1.20
2014,11,16,04,10,-1.20
2014,11,16,04,11,-1.20
2014,11,16,04,12,-1.30
2014,11,16,04,13,-1.30
2014,11,16,04,14,-1.20
2014,11,16,04,15,-1.20
2014,11,16,04,16,-1.20
2014,11,16,04,17,-1.20
2014,11,16,04,18,-1.20
2014,11,16,04,19,-1.30
2014,11,16,04,20,-1.30
2014,11,16,04,21,-1.30
2014,11,16,04,22,-1.30
2014,11,16,04,23,-1.40
2014,11,16,04,24,-1.40
2014,11,16,04,25,-1.40
2014,11,16,04,26,-1.40
2014,11,16,04,27,-1.40
2014,11,16,04,28,-1.40
2014,11,16,04,29,-1.30
2014,11,16,04,30,-1.30
2014,11,16,04,31,-1.20
2014,11,16,04,32,-1.20
2014,11,16,04,33,-1.20
2014,11,16,04,34,-1.20
2014,11,16,04,35,-1.10
2014,11,16,04,36,-1.00
2014,11,16,04,37,-0.90
2014,11,16,04,38,-0.90
2014,11,16,04,39,-0.80
2014,11,16,04,40,-0.80
2014,11,16,04,41,-0.70
2014,11,16,04,42,-0.70
2014,11,16,04,43,-0.60
2014,11,16,04,44,-0.60
2014,11,16,04,45,-0.50
2014,11,16,04,46,-0.40
2014,11,16,04,47,-0.40
2014,11,16,04,48,-0.40
2014,11,16,04,49,-0.40
2014,11,16,04,50,-0.40
2014,11,16,04,51,-0.30
2014,11,16,04,52,-0.30
2014,11,16,04,53,-0.30
2014,11,16,04,54,-0.20
2014,11,16,04,55,-0.10
2014,11,16,04,56,-0.10
2014,11,16,04,57,-0.10
2014,11,16,04,58,-0.10
2014,11,16,04,59,-0.10
2014,11,16,05,00,0.00
2014,11,16,05,01,0.10
2014,11,16,05,02,0.10
2014,11,16,05,03,0.10
2014,11,16,05,04,0.10
2014,11,16,05,05,0.20
2014,11,16,05,06,0.20
2014,11,16,05,07,0.20
2014,11,16,05,08,0.20
2014,11,16,05,09,0.20
2014,11,16,05,10,0.20
2014,11,16,05,11,0.30
2014,11,16,05,12,0.30
2014,11,16,05,13,0.30
2014,11,16,05,14,0.30
2014,11,16,05,15,0.30
2014,11,16,05,16,0.30
2014,11,16,05,17,0.30
2014,11,16,05,18,0.30
2014,11,16,05,19,0.30
2014,11,16,05,20,0.30
2014,11,16,05,21,0.40
2014,11,16,05,22,0.40
2014,11,16,05,23,0.40
2014,11,16,05,24,0.40
2014,11,16,05,25,0.40
2014,11,16,05,26,0.40
2014,11,16,05,27,0.40
2014,11,16,05,28,0.40
2014,11,16,05,29,0.40
2014,11,16,05,30,0.40
2014,11,16,05,31,0.50
2014,11,16,05,32,0.50
2014,11,16,05,33,0.50
2014,11,16,05,34,0.50
2014,11,16,05,35,0.50
2014,11,16,05,36,0.50
2014,11,16,05,37,0.50
2014,11,16,05,38,0.50
2014,11,16,05,39,0.50
2014,11,16,05,40,0.50
2014,11,16,05,41,0.40
2014,11,16,05,42,0.40
2014,11,16,05,43,0.40
2014,11,16,05,44,0.40
2014,11,16,05,45,0.40
2014,11,16,05,46,0.30
2014,11,16,05,47,0.20
2014,11,16,05,48,0.10
2014,11,16,05,49,0.00
2014,11,16,05,50,-0.10
2014,11,16,05,51,-0.20
2014,11,16,05,52,-0.20
2014,11,16,05,53,-0.30
2014,11,16,05,54,-0.40
2014,11,16,05,55,-0.40
2014,11,16,05,56,-0.40
2014,11,16,05,57,-0.40
2014,11,16,05,58,-0.40
2014,11,16,05,59,-0.40
2014,11,16,06,00,-0.40
2014,11,16,06,01,-0.30
2014,11,16,06,02,-0.30
2014,11,16,06,03,-0.20
2014,11,16,06,04,-0.20
2014,11,16,06,05,-0.20
2014,11,16,06,06,-0.20
2014,11,16,06,07,-0.10
2014,11,16,06,08,-0.10
2014,11,16,06,09,-0.10
2014,11,16,06,10,-0.10
2014,11,16,06,11,0.00
2014,11,16,06,12,0.10
2014,11,16,06,13,0.10
2014,11,16,06,14,0.10
2014,11,16,06,15,0.10
2014,11,16,06,16,0.10
2014,11,16,06,17,0.10
2014,11,16,06,18,0.10
2014,11,16,06,19,0.10
2014,11,16,06,20,0.10
2014,11,16,06,21,0.10
2014,11,16,06,22,0.10
2014,11,16,06,23,0.10
2014,11,16,06,24,0.10
2014,11,16,06,25,0.10
2014,11,16,06,26,0.10
2014,11,16,06,27,0.10
2014,11,16,06,28,0.10
2014,11,16,06,29,0.10
2014,11,16,06,30,0.10
2014,11,16,06,31,0.10
2014,11,16,06,32,0.10
2014,11,16,06,33,0.10
2014,11,16,06,34,0.10
2014,11,16,06,35,0.00
2014,11,16,06,36,-0.10
2014,11,16,06,37,-0.10
2014,11,16,06,38,-0.20
2014,11,16,06,39,-0.30
2014,11,16,06,40,-0.40
2014,11,16,06,41,-0.50
2014,11,16,06,42,-0.60
2014,11,16,06,43,-0.70
2014,11,16,06,44,-0.80
2014,11,16,06,45,-0.90
2014,11,16,06,46,-1.00
2014,11,16,06,47,-1.10
2014,11,16,06,48,-1.10
2014,11,16,06,49,-1.10
2014,11,16,06,50,-1.20
2014,11,16,06,51,-1.20
2014,11,16,06,52,-1.20
2014,11,16,06,53,-1.20
2014,11,16,06,54,-1.20
2014,11,16,06,55,-1.20
2014,11,16,06,56,-1.20
2014,11,16,06,57,-1.10
2014,11,16,06,58,-1.10
2014,11,16,06,59,-1.10
2014,11,16,07,00,-1.10
2014,11,16,07,01,-1.10
2014,11,16,07,02,-1.00
2014,11,16,07,03,-0.90
2014,11,16,07,04,-0.90
2014,11,16,07,05,-0.80
2014,11,16,07,06,-0.70
2014,11,16,07,07,-0.60
2014,11,16,07,08,-0.50
2014,11,16,07,09,-0.40
2014,11,16,07,10,-0.40
2014,11,16,07,11,-0.30
2014,11,16,07,12,-0.20
2014,11,16,07,13,-0.10
2014,11,16,07,14,-0.10
2014,11,16,07,15,-0.10
2014,11,16,07,16,-0.10
2014,11,16,07,17,-0.10
2014,11,16,07,18,-0.10
2014,11,16,07,19,-0.10
2014,11,16,07,20,-0.10
2014,11,16,07,21,-0.10
2014,11,16,07,22,-0.10
2014,11,16,07,23,-0.10
2014,11,16,07,24,-0.10
2014,11,16,07,25,-0.10
2014,11,16,07,26,-0.20
2014,11,16,07,27,-0.20
2014,11,16,07,28,-0.20
2014,11,16,07,29,-0.20
2014,11,16,07,30,-0.20
2014,11,16,07,31,-0.20
2014,11,16,07,32,-0.20
2014,11,16,07,33,-0.20
2014,11,16,07,34,-0.20
2014,11,16,07,35,-0.20
2014,11,16,07,36,-0.20
2014,11,16,07,37,-0.10
2014,11,16,07,38,-0.10
2014,11,16,07,39,-0.10
2014,11,16,07,40,-0.10
2014,11,16,07,41,-0.10
2014,11,16,07,42,-0.10
2014,11,16,07,43,-0.10
2014,11,16,07,44,-0.10
2014,11,16,07,45,-0.10
2014,11,16,07,46,-0.10
2014,11,16,07,47,-0.10
2014,11,16,07,48,-0.10
2014,11,16,07,49,-0.10
2014,11,16,07,50,-0.10
2014,11,16,07,51,-0.10
2014,11,16,07,52,-0.10
2014,11,16,07,53,0.10
2014,11,16,07,54,0.10
2014,11,16,07,55,0.10
2014,11,16,07,56,0.20
2014,11,16,07,57,0.20
2014,11,16,07,58,0.10
2014,11,16,07,59,0.10
2014,11,16,08,00,0.20
2014,11,16,08,01,0.20
2014,11,16,08,02,0.20
2014,11,16,08,03,0.30
2014,11,16,08,04,0.30
2014,11,16,08,05,0.40
2014,11,16,08,06,0.40
2014,11,16,08,07,0.40
2014,11,16,08,08,0.40
2014,11,16,08,09,0.40
2014,11,16,08,10,0.40
2014,11,16,08,11,0.40
2014,11,16,08,12,0.40
2014,11,16,08,13,0.40
2014,11,16,08,14,0.40
2014,11,16,08,15,0.40
2014,11,16,08,16,0.50
2014,11,16,08,17,0.50
2014,11,16,08,18,0.60
2014,11,16,08,19,0.60
2014,11,16,08,20,0.70
2014,11,16,08,21,0.70
2014,11,16,08,22,0.80
2014,11,16,08,23,0.80
2014,11,16,08,24,0.80
2014,11,16,08,25,0.80
2014,11,16,08,26,0.90
2014,11,16,08,27,1.00
2014,11,16,08,28,1.00
2014,11,16,08,29,1.10
2014,11,16,08,30,1.10
2014,11,16,08,31,1.10
2014,11,16,08,32,1.10
2014,11,16,08,33,1.10
2014,11,16,08,34,1.10
2014,11,16,08,35,1.20
2014,11,16,08,36,1.20
2014,11,16,08,37,1.20
2014,11,16,08,38,1.30
2014,11,16,08,39,1.30
2014,11,16,08,40,1.30
2014,11,16,08,41,1.40
2014,11,16,08,42,1.50
2014,11,16,08,43,1.50
2014,11,16,08,44,1.60
2014,11,16,08,45,1.60
2014,11,16,08,46,1.60
2014,11,16,08,47,1.70
2014,11,16,08,48,1.70
2014,11,16,08,49,1.70
2014,11,16,08,50,1.80
2014,11,16,08,51,1.80
2014,11,16,08,52,1.80
2014,11,16,08,53,1.80
2014,11,16,08,54,1.80
2014,11,16,08,55,1.80
2014,11,16,08,56,1.80
2014,11,16,08,57,1.90
2014,11,16,08,58,1.90
2014,11,16,08,59,1.90
2014,11,16,09,00,2.00
2014,11,16,09,01,2.00
2014,11,16,09,02,2.10
2014,11,16,09,03,2.20
2014,11,16,09,04,2.20
2014,11,16,09,05,2.20
2014,11,16,09,06,2.20
2014,11,16,09,07,2.30
2014,11,16,09,08,2.30
2014,11,16,09,09,2.30
2014,11,16,09,10,2.40
2014,11,16,09,11,2.40
2014,11,16,09,12,2.40
2014,11,16,09,13,2.50
2014,11,16,09,14,2.50
2014,11,16,09,15,2.50
2014,11,16,09,16,2.50
2014,11,16,09,17,2.50
2014,11,16,09,18,2.60
2014,11,16,09,19,2.70
2014,11,16,09,20,2.70
2014,11,16,09,21,2.80
2014,11,16,09,22,2.80
2014,11,16,09,23,2.80
2014,11,16,09,24,2.90
2014,11,16,09,25,2.90
2014,11,16,09,26,2.90
2014,11,16,09,27,2.90
2014,11,16,09,28,3.10
2014,11,16,09,29,3.10
2014,11,16,09,30,3.10
2014,11,16,09,31,3.20
2014,11,16,09,32,3.20
2014,11,16,09,33,3.30
2014,11,16,09,34,3.30
2014,11,16,09,35,3.30
2014,11,16,09,36,3.40
2014,11,16,09,37,3.50
2014,11,16,09,38,3.50
2014,11,16,09,39,3.50
2014,11,16,09,40,3.60
2014,11,16,09,41,3.60
2014,11,16,09,42,3.70
2014,11,16,09,43,3.70
2014,11,16,09,44,3.80
2014,11,16,09,45,3.80
2014,11,16,09,46,3.80
2014,11,16,09,47,3.90
2014,11,16,09,48,3.90
2014,11,16,09,49,4.00
2014,11,16,09,50,4.00
2014,11,16,09,51,4.00
2014,11,16,09,52,4.00
2014,11,16,09,53,4.10
2014,11,16,09,54,4.10
2014,11,16,09,55,4.10
2014,11,16,09,56,4.20
2014,11,16,09,57,4.20
2014,11,16,09,58,4.20
2014,11,16,09,59,4.20
2014,11,16,10,00,4.30
2014,11,16,10,01,4.30
2014,11,16,10,02,4.40
2014,11,16,10,03,4.40
2014,11,16,10,04,4.50
2014,11,16,10,05,4.50
2014,11,16,10,06,4.50
2014,11,16,10,07,4.60
2014,11,16,10,08,4.60
2014,11,16,10,09,4.60
2014,11,16,10,10,4.60
2014,11,16,10,11,4.60
2014,11,16,10,12,4.60
2014,11,16,10,13,4.70
2014,11,16,10,14,4.70
2014,11,16,10,15,4.70
2014,11,16,10,16,4.70
2014,11,16,10,17,4.80
2014,11,16,10,18,4.80
2014,11,16,10,19,4.80
2014,11,16,10,20,4.90
2014,11,16,10,21,4.90
2014,11,16,10,22,4.90
2014,11,16,10,23,4.90
2014,11,16,10,24,4.90
2014,11,16,10,25,4.90
2014,11,16,10,26,5.00
2014,11,16,10,27,5.10
2014,11,16,10,28,5.10
2014,11,16,10,29,5.10
2014,11,16,10,30,5.10
2014,11,16,10,31,5.10
2014,11,16,10,32,5.10
2014,11,16,10,33,5.20
2014,11,16,10,34,5.20
2014,11,16,10,35,5.20
2014,11,16,10,36,5.30
2014,11,16,10,37,5.30
2014,11,16,10,38,5.30
2014,11,16,10,39,5.30
2014,11,16,10,40,5.30
2014,11,16,10,41,5.30
2014,11,16,10,42,5.30
2014,11,16,10,43,5.30
2014,11,16,10,44,5.30
2014,11,16,10,45,5.30
2014,11,16,10,46,5.30
2014,11,16,10,47,5.30
2014,11,16,10,48,5.30
2014,11,16,10,49,5.30
2014,11,16,10,50,5.30
2014,11,16,10,51,5.30
2014,11,16,10,52,5.30
2014,11,16,10,53,5.30
2014,11,16,10,54,5.30
2014,11,16,10,55,5.30
2014,11,16,10,56,5.30
2014,11,16,10,57,5.30
2014,11,16,10,58,5.30
2014,11,16,10,59,5.30
2014,11,16,11,00,5.30
2014,11,16,11,01,5.30
2014,11,16,11,02,5.30
2014,11,16,11,03,5.30
2014,11,16,11,04,5.40
2014,11,16,11,05,5.40
2014,11,16,11,06,5.40
2014,11,16,11,07,5.50
2014,11,16,11,08,5.50
2014,11,16,11,09,5.50
2014,11,16,11,10,5.50
2014,11,16,11,11,5.50
2014,11,16,11,12,5.60
2014,11,16,11,13,5.60
2014,11,16,11,14,5.70
2014,11,16,11,15,5.70
2014,11,16,11,16,5.70
2014,11,16,11,17,5.70
2014,11,16,11,18,5.70
2014,11,16,11,19,5.80
2014,11,16,11,20,5.80
2014,11,16,11,21,5.80
2014,11,16,11,22,5.80
2014,11,16,11,23,5.80
2014,11,16,11,24,5.80
2014,11,16,11,25,5.80
2014,11,16,11,26,5.80
2014,11,16,11,27,5.90
2014,11,16,11,28,5.90
2014,11,16,11,29,5.90
2014,11,16,11,30,6.00
2014,11,16,11,31,6.00
2014,11,16,11,32,6.00
2014,11,16,11,33,5.90
2014,11,16,11,34,5.90
2014,11,16,11,35,5.90
2014,11,16,11,36,5.90
2014,11,16,11,37,5.90
2014,11,16,11,38,5.90
2014,11,16,11,39,6.00
2014,11,16,11,40,6.00
2014,11,16,11,41,6.00
2014,11,16,11,42,6.00
2014,11,16,11,43,6.10
2014,11,16,11,44,6.20
2014,11,16,11,45,6.20
2014,11,16,11,46,6.20
2014,11,16,11,47,6.20
2014,11,16,11,48,6.20
2014,11,16,11,49,6.20
2014,11,16,11,50,6.20
2014,11,16,11,51,6.20
2014,11,16,11,52,6.20
2014,11,16,11,53,6.20
2014,11,16,11,54,6.30
2014,11,16,11,55,6.30
2014,11,16,11,56,6.30
2014,11,16,11,57,6.40
2014,11,16,11,58,6.40
2014,11,16,11,59,6.40
2014,11,16,12,00,6.60
2014,11,16,12,01,6.60
2014,11,16,12,02,6.60
2014,11,16,12,03,6.60
2014,11,16,12,04,6.60
2014,11,16,12,05,6.60
2014,11,16,12,06,6.60
2014,11,16,12,07,6.60
2014,11,16,12,08,6.70
2014,11,16,12,09,6.70
2014,11,16,12,10,6.70
2014,11,16,12,11,6.70
2014,11,16,12,12,6.80
2014,11,16,12,13,6.80
2014,11,16,12,14,6.80
2014,11,16,12,15,6.80
2014,11,16,12,16,6.80
2014,11,16,12,17,6.80
2014,11,16,12,18,6.80
2014,11,16,12,19,6.70
2014,11,16,12,20,6.70
2014,11,16,12,21,6.70
2014,11,16,12,22,6.60
2014,11,16,12,23,6.60
2014,11,16,12,24,6.60
2014,11,16,12,25,6.60
2014,11,16,12,26,6.70
2014,11,16,12,27,6.70
2014,11,16,12,28,6.70
2014,11,16,12,29,6.70
2014,11,16,12,30,6.70
2014,11,16,12,31,6.80
2014,11,16,12,32,6.80
2014,11,16,12,33,6.80
2014,11,16,12,34,6.80
2014,11,16,12,35,6.80
2014,11,16,12,36,6.80
2014,11,16,12,37,6.80
2014,11,16,12,38,6.80
2014,11,16,12,39,6.80
2014,11,16,12,40,6.80
2014,11,16,12,41,6.80
2014,11,16,12,42,6.80
2014,11,16,12,43,6.80
2014,11,16,12,44,6.80
2014,11,16,12,45,6.90
2014,11,16,12,46,7.00
2014,11,16,12,47,7.00
2014,11,16,12,48,7.10
2014,11,16,12,49,7.20
2014,11,16,12,50,7.30
2014,11,16,12,51,7.30
2014,11,16,12,52,7.30
2014,11,16,12,53,7.30
2014,11,16,12,54,7.30
2014,11,16,12,55,7.30
2014,11,16,12,56,7.30
2014,11,16,12,57,7.30
2014,11,16,12,58,7.30
2014,11,16,12,59,7.30
2014,11,16,13,00,7.30
2014,11,16,13,01,7.30
2014,11,16,13,02,7.30
2014,11,16,13,03,7.30
2014,11,16,13,04,7.30
2014,11,16,13,05,7.30
2014,11,16,13,06,7.30
2014,11,16,13,07,7.30
2014,11,16,13,08,7.30
2014,11,16,13,09,7.30
2014,11,16,13,10,7.30
2014,11,16,13,11,7.30
2014,11,16,13,12,7.30
2014,11,16,13,13,7.30
2014,11,16,13,14,7.30
2014,11,16,13,15,7.20
2014,11,16,13,16,7.20
2014,11,16,13,17,7.20
2014,11,16,13,18,7.20
2014,11,16,13,19,7.20
2014,11,16,13,20,7.20
2014,11,16,13,21,7.20
2014,11,16,13,22,7.20
2014,11,16,13,23,7.30
2014,11,16,13,24,7.30
2014,11,16,13,25,7.30
2014,11,16,13,26,7.30
2014,11,16,13,27,7.30
2014,11,16,13,28,7.30
2014,11,16,13,29,7.30
2014,11,16,13,30,7.30
2014,11,16,13,31,7.30
2014,11,16,13,32,7.30
2014,11,16,13,33,7.30
2014,11,16,13,34,7.30
2014,11,16,13,35,7.30
2014,11,16,13,36,7.40
2014,11,16,13,37,7.40
2014,11,16,13,38,7.40
2014,11,16,13,39,7.30
2014,11,16,13,40,7.30
2014,11,16,13,41,7.30
2014,11,16,13,42,7.30
2014,11,16,13,43,7.30
2014,11,16,13,44,7.30
2014,11,16,13,45,7.30
2014,11,16,13,46,7.30
2014,11,16,13,47,7.40
2014,11,16,13,48,7.40
2014,11,16,13,49,7.40
2014,11,16,13,50,7.40
2014,11,16,13,51,7.40
2014,11,16,13,52,7.40
2014,11,16,13,53,7.40
2014,11,16,13,54,7.40
2014,11,16,13,55,7.40
2014,11,16,13,56,7.40
2014,11,16,13,57,7.30
2014,11,16,13,58,7.30
2014,11,16,13,59,7.30
2014,11,16,14,00,7.30
2014,11,16,14,01,7.30
2014,11,16,14,02,7.30
2014,11,16,14,03,7.30
2014,11,16,14,04,7.30
2014,11,16,14,05,7.40
2014,11,16,14,06,7.40
2014,11,16,14,07,7.40
2014,11,16,14,08,7.40
2014,11,16,14,09,7.40
2014,11,16,14,10,7.40
2014,11,16,14,11,7.40
2014,11,16,14,12,7.40
2014,11,16,14,13,7.30
2014,11,16,14,14,7.30
2014,11,16,14,15,7.30
2014,11,16,14,16,7.30
2014,11,16,14,17,7.30
2014,11,16,14,18,7.30
2014,11,16,14,19,7.30
2014,11,16,14,20,7.30
2014,11,16,14,21,7.40
2014,11,16,14,22,7.40
2014,11,16,14,23,7.40
2014,11,16,14,24,7.40
2014,11,16,14,25,7.30
2014,11,16,14,26,7.30
2014,11,16,14,27,7.30
2014,11,16,14,28,7.30
2014,11,16,14,29,7.30
2014,11,16,14,30,7.30
2014,11,16,14,31,7.30
2014,11,16,14,32,7.30
2014,11,16,14,33,7.30
2014,11,16,14,34,7.30
2014,11,16,14,35,7.30
2014,11,16,14,36,7.20
2014,11,16,14,37,7.20
2014,11,16,14,38,7.20
2014,11,16,14,39,7.10
2014,11,16,14,40,7.10
2014,11,16,14,41,7.10
2014,11,16,14,42,7.00
2014,11,16,14,43,7.00
2014,11,16,14,44,7.00
2014,11,16,14,45,7.00
2014,11,16,14,46,6.90
2014,11,16,14,47,6.90
2014,11,16,14,48,7.00
2014,11,16,14,49,7.00
2014,11,16,14,50,7.00
2014,11,16,14,51,7.00
2014,11,16,14,52,7.00
2014,11,16,14,53,7.00
2014,11,16,14,54,7.00
2014,11,16,14,55,7.00
2014,11,16,14,56,7.00
2014,11,16,14,57,7.00
2014,11,16,14,58,7.00
2014,11,16,14,59,7.00
2014,11,16,15,00,6.90
2014,11,16,15,01,6.90
2014,11,16,15,02,6.90
2014,11,16,15,03,6.90
2014,11,16,15,04,6.90
2014,11,16,15,05,6.80
2014,11,16,15,06,6.80
2014,11,16,15,07,6.80
2014,11,16,15,08,6.80
2014,11,16,15,09,6.80
2014,11,16,15,10,6.80
2014,11,16,15,11,6.80
2014,11,16,15,12,6.80
2014,11,16,15,13,6.80
2014,11,16,15,14,6.80
2014,11,16,15,15,6.70
2014,11,16,15,16,6.70
2014,11,16,15,17,6.70
2014,11,16,15,18,6.70
2014,11,16,15,19,6.70
2014,11,16,15,20,6.70
2014,11,16,15,21,6.70
2014,11,16,15,22,6.70
2014,11,16,15,23,6.70
2014,11,16,15,24,6.70
2014,11,16,15,25,6.70
2014,11,16,15,26,6.60
2014,11,16,15,27,6.60
2014,11,16,15,28,6.60
2014,11,16,15,29,6.60
2014,11,16,15,30,6.60
2014,11,16,15,31,6.60
2014,11,16,15,32,6.60
2014,11,16,15,33,6.60
2014,11,16,15,34,6.60
2014,11,16,15,35,6.60
2014,11,16,15,36,6.60
2014,11,16,15,37,6.60
2014,11,16,15,38,6.60
2014,11,16,15,39,6.50
2014,11,16,15,40,6.40
2014,11,16,15,41,6.40
2014,11,16,15,42,6.40
2014,11,16,15,43,6.40
2014,11,16,15,44,6.40
2014,11,16,15,45,6.40
2014,11,16,15,46,6.40
2014,11,16,15,47,6.40
2014,11,16,15,48,6.40
2014,11,16,15,49,6.40
2014,11,16,15,50,6.40
2014,11,16,15,51,6.40
2014,11,16,15,52,6.30
2014,11,16,15,53,6.30
2014,11,16,15,54,6.30
2014,11,16,15,55,6.30
2014,11,16,15,56,6.30
2014,11,16,15,57,6.30
2014,11,16,15,58,6.30
2014,11,16,15,59,6.20
2014,11,16,16,00,6.20
2014,11,16,16,01,6.20
2014,11,16,16,02,6.20
2014,11,16,16,03,6.20
2014,11,16,16,04,6.20
2014,11,16,16,05,6.20
2014,11,16,16,06,6.20
2014,11,16,16,07,6.20
2014,11,16,16,08,6.10
2014,11,16,16,09,6.10
2014,11,16,16,10,6.00
2014,11,16,16,11,6.00
2014,11,16,16,12,6.00
2014,11,16,16,13,6.00
2014,11,16,16,14,5.90
2014,11,16,16,15,5.90
2014,11,16,16,16,5.90
2014,11,16,16,17,5.90
2014,11,16,16,18,5.80
2014,11,16,16,19,5.80
2014,11,16,16,20,5.80
2014,11,16,16,21,5.70
2014,11,16,16,22,5.70
2014,11,16,16,23,5.70
2014,11,16,16,24,5.70
2014,11,16,16,25,5.70
2014,11,16,16,26,5.70
2014,11,16,16,27,5.70
2014,11,16,16,28,5.60
2014,11,16,16,29,5.60
2014,11,16,16,30,5.60
2014,11,16,16,31,5.50
2014,11,16,16,32,5.50
2014,11,16,16,33,5.50
2014,11,16,16,34,5.40
2014,11,16,16,35,5.40
2014,11,16,16,36,5.40
2014,11,16,16,37,5.30
2014,11,16,16,38,5.30
2014,11,16,16,39,5.30
2014,11,16,16,40,5.30
2014,11,16,16,41,5.30
2014,11,16,16,42,5.20
2014,11,16,16,43,5.20
2014,11,16,16,44,5.20
2014,11,16,16,45,5.10
2014,11,16,16,46,5.10
2014,11,16,16,47,5.10
2014,11,16,16,48,5.10
2014,11,16,16,49,5.00
2014,11,16,16,50,4.90
2014,11,16,16,51,4.90
2014,11,16,16,52,4.90
2014,11,16,16,53,4.90
2014,11,16,16,54,4.80
2014,11,16,16,55,4.80
2014,11,16,16,56,4.80
2014,11,16,16,57,4.70
2014,11,16,16,58,4.70
2014,11,16,16,59,4.60
2014,11,16,17,00,4.60
2014,11,16,17,01,4.50
2014,11,16,17,02,4.50
2014,11,16,17,03,4.50
2014,11,16,17,04,4.40
2014,11,16,17,05,4.40
2014,11,16,17,06,4.30
2014,11,16,17,07,4.30
2014,11,16,17,08,4.30
2014,11,16,17,09,4.20
2014,11,16,17,10,4.20
2014,11,16,17,11,4.20
2014,11,16,17,12,4.20
2014,11,16,17,13,4.20
2014,11,16,17,14,4.20
2014,11,16,17,15,4.20
2014,11,16,17,16,4.20
2014,11,16,17,17,4.20
2014,11,16,17,18,4.20
2014,11,16,17,19,4.20
2014,11,16,17,20,4.20
2014,11,16,17,21,4.20
2014,11,16,17,22,4.20
2014,11,16,17,23,4.20
2014,11,16,17,24,4.20
2014,11,16,17,25,4.20
2014,11,16,17,26,4.20
2014,11,16,17,27,4.10
2014,11,16,17,28,4.10
2014,11,16,17,29,4.10
2014,11,16,17,30,4.10
2014,11,16,17,31,4.10
2014,11,16,17,32,4.00
2014,11,16,17,33,4.00
2014,11,16,17,34,4.00
2014,11,16,17,35,4.00
2014,11,16,17,36,3.90
2014,11,16,17,37,3.90
2014,11,16,17,38,3.90
2014,11,16,17,39,3.90
2014,11,16,17,40,3.90
2014,11,16,17,41,3.90
2014,11,16,17,42,3.80
2014,11,16,17,43,3.80
2014,11,16,17,44,3.80
2014,11,16,17,45,3.80
2014,11,16,17,46,3.80
2014,11,16,17,47,3.80
2014,11,16,17,48,3.80
2014,11,16,17,49,3.80
2014,11,16,17,50,3.80
2014,11,16,17,51,3.80
2014,11,16,17,52,3.80
2014,11,16,17,53,3.70
2014,11,16,17,54,3.70